Вернуться в каталог

BEIDOU 3M25

АктивенНавигацияMEO
NORAD 61186·PAYLOAD·🇨🇳 China

Запущен Sep 19, 2024 с Xichang Satellite Launch Center

Loading…

Ближайшие Пролёты (ближайшие 24 часа)

TLE

СвежийSource: Space-Track

Эпоха: Sep 14, 2026, 14:15 UTC

1 61186U 24168B   26257.59425442 -.00000061  00000-0  00000+0 0  9997
2 61186  54.3905 299.1275 0004557 289.0918  71.6668  1.86230280 13450

Отслеживайте BEIDOU 3M25 в реальном времени с AllMySat

Download on the App Store